QUETZSAT 1

Last updated on Thu Oct 16 2025 00:02:46 GMT+0000 (Coordinated Universal Time)

1 37826U 11054A 25288.54154682 .00000000 00000+0 00000+0 0 9995 2 37826 0.0201 104.1779 0002182 100.3948 297.7145 1.00268937 47426
UTC large
Height (km)
Speed (km/s)
/
Latitude / Longitude
Inclination (degrees)
Orbital Period (minutes)
Azimuth
Elevation
Range (km)
Doppler Factor

Next 0 passes for location: London (51.5072 / 0.1276)

Sorry there are no passes over London.